Overview Statistics Trail Chart Weather Telemetry Raw packets
 

This is the latest recevied weather packets stored in our database for station/object KB1YTR-1. If no packets are shown the sender has not sent any weather packets the latest 10 day(s).

<< 23 24 25 26 27 28 29 >>
Time Temp. Humidity Pressure Rain* Wind** Luminosity Snow
1788216694 28.33° C 59% 1011 hPa 0 mm - - -
1788215969 28.89° C 59% 1011 hPa 0 mm - - -
1788215069 28.33° C 59% 1010.9 hPa 0 mm - - -
1788214274 27.78° C 61% 1010.9 hPa 0 mm - - -
1788213374 27.78° C 61% 1010.8 hPa 0 mm - - -
1788212629 27.22° C 63% 1010.7 hPa 0 mm - - -
1788211759 27.22° C 65% 1010.8 hPa 0 mm - - -
1788210904 27.78° C 60% 1010.9 hPa 0 mm - - -
1788210102 27.22° C 62% 1010.9 hPa 0 mm - - -
1788209246 27.22° C 67% 1010.9 hPa 0 mm - - -
1788208384 27.22° C 72% 1010.7 hPa 0 mm - - -
1788207524 27.22° C 68% 1010.5 hPa 0 mm - - -
1788206699 27.22° C 73% 1010.5 hPa 0 mm - - -
1788205918 26.67° C 79% 1010.7 hPa 0 mm - - -
1788205108 25° C 90% 1010.9 hPa 0 mm - - -
1788204324 23.89° C 92% 1010.7 hPa 0 mm - - -
1788203439 22.78° C 94% 1010.7 hPa 0 mm - - -
1788202594 22.78° C 99% 1010.5 hPa 0 mm - - -
1788201794 21.11° C 99% 1010.8 hPa 0 mm - - -
1788200904 20° C 99% 1011 hPa 0 mm - - -
1788200024 20° C 99% 1010.7 hPa 0 mm - - -
1788199142 20° C 99% 1010.8 hPa 0 mm - - -
1788198399 19.44° C 99% 1010.7 hPa 0 mm - - -
1788197589 19.44° C 99% 1010.5 hPa 0 mm - - -
1788196831 20° C 99% 1010.5 hPa 0 mm - - -

* Rain latest hour (hover to see other rain measurements)
** Current wind speed in m/s (hover to see current wind gust speed)